GW5579 Weather Reports


time (UTC)temp
C
wind
direction
speed
KPH
gust
KPH
rain 1hr
cm
rain 24hr
cm
rain mn
cm
humidity
%
barometer
mb
20260906023236 11 181 3.2 3.2 0.00 0.10 0.10 96 1011.0
20260906022732 11 159 1.6 6.4 0.00 0.10 0.10 96 1010.9
20260906022227 11 182 0.0 1.6 0.18 0.10 0.10 96 1011.0
20260906021723 11 173 1.6 6.4 0.30 0.10 0.10 96 1010.9
20260906021221 11 177 1.6 4.8 0.13 0.08 0.08 96 1011.0
20260906020717 11 165 1.6 1.6 0.00 0.05 0.05 96 1010.9
20260906020211 11 199 3.2 3.2 0.00 0.05 0.05 96 1010.9
20260906015706 12 167 1.6 4.8 0.00 0.05 0.05 95 1010.8
20260906015204 12 188 1.6 3.2 0.18 0.05 0.05 95 1010.6
20260906014658 12 191 1.6 9.7 0.00 0.03 0.03 95 1010.8
20260906014154 12 186 1.6 3.2 0.00 0.03 0.03 95 1010.7
20260906013650 12 190 0.0 1.6 0.00 0.03 0.03 95 1010.7
20260906013145 12 169 0.0 1.6 0.00 0.03 0.03 95 1010.9
20260906012645 12 193 1.6 3.2 0.00 0.03 0.03 95 1010.8
20260906012145 12 165 1.6 1.6 0.00 0.03 0.03 95 1010.7
20260906011641 12 182 1.6 4.8 0.00 0.03 0.03 95 1010.8
20260906011136 12 159 0.0 1.6 0.00 0.03 0.03 95 1011.0
20260906010632 12 221 3.2 3.2 0.00 0.03 0.03 95 1010.8
20260906010128 12 141 0.0 3.2 0.00 0.03 0.03 95 1010.7
20260906005627 12 198 1.6 1.6 0.00 0.03 0.03 95 1010.7
20260906005127 12 168 3.2 6.4 0.00 0.03 0.03 95 1010.6
20260906004625 12 178 0.0 1.6 0.00 0.03 0.03 95 1010.6
20260906004120 11 170 0.0 1.6 0.00 0.03 0.03 95 1010.7
20260906003616 11 168 0.0 3.2 0.00 0.03 0.03 96 1010.7
20260906003112 11 188 0.0 3.2 0.00 0.03 0.03 96 1010.7
20260906002612 11 229 6.4 6.4 0.00 0.03 0.03 96 1010.7
20260906002107 11 209 6.4 9.7 0.00 0.03 0.03 96 1010.8
20260906001603 11 212 3.2 4.8 0.00 0.03 0.03 96 1010.7
20260906001102 11 182 3.2 11.3 0.00 0.03 0.03 96 1010.8
20260906000559 11 178 1.6 3.2 0.00 0.03 0.03 96 1010.7
20260906000053 11 177 1.6 3.2 0.13 0.03 0.03 97 1010.7
20260905235553 11 191 1.6 9.7 0.13 0.03 0.03 97 1010.6
20260905235048 11 176 0.0 9.7 0.00 0.00 0.00 97 1010.6
20260905234543 11 207 1.6 1.6 0.00 0.00 0.00 97 1010.6
20260905234039 11 167 3.2 3.2 0.00 0.00 0.00 97 1010.6
20260905233538 11 174 0.0 3.2 0.00 0.00 0.00 97 1010.7
20260905233038 11 173 0.0 4.8 0.00 0.00 0.00 97 1010.4
20260905232533 11 211 0.0 3.2 0.00 0.00 0.00 96 1010.6
20260905232029 11 182 0.0 4.8 0.00 0.00 0.00 96 1010.5
20260905231524 11 186 1.6 4.8 0.00 0.00 0.00 96 1010.5
20260905231021 11 178 1.6 4.8 0.00 0.00 0.00 96 1010.4
20260905230520 11 261 8.0 11.3 0.00 0.00 0.00 97 1010.4
20260905230018 11 180 1.6 6.4 0.00 0.00 0.00 96 1010.5
20260905225513 11 202 0.0 6.4 0.00 0.00 0.00 96 1010.4
20260905225008 11 186 3.2 4.8 0.00 0.00 0.00 96 1010.4
20260905224503 11 194 1.6 1.6 0.00 0.00 0.00 96 1010.4
20260905224002 11 187 1.6 6.4 0.00 0.00 0.00 97 1010.5
20260905223500 11 216 3.2 3.2 0.00 0.00 0.00 97 1010.4
20260905222955 11 225 1.6 4.8 0.00 0.00 0.00 97 1010.4
20260905222455 11 194 3.2 3.2 0.00 0.00 0.00 97 1010.7
20260905221951 11 204 3.2 4.8 0.00 0.00 0.00 97 1010.5
20260905221447 11 287 3.2 6.4 0.00 0.00 0.00 97 1010.5
20260905220943 11 188 0.0 1.6 0.00 0.00 0.00 97 1010.6
20260905220439 11 177 0.0 11.3 0.00 0.00 0.00 97 1010.6
20260905215938 11 205 1.6 3.2 0.00 0.00 0.00 97 1010.5
20260905215433 11 167 0.0 6.4 0.00 0.00 0.00 97 1010.5
20260905214930 11 247 0.0 3.2 0.00 0.00 0.00 97 1010.5
20260905214426 11 172 0.0 1.6 0.00 0.00 0.00 97 1010.5
20260905213925 11 171 0.0 1.6 0.00 0.00 0.00 96 1010.5
20260905213422 11 185 0.0 1.6 0.00 0.00 0.00 96 1010.6
20260905212917 11 255 0.0 1.6 0.00 0.00 0.00 96 1010.4
20260905212412 11 185 0.0 1.6 0.00 0.00 0.00 96 1010.8
20260905211910 11 172 1.6 4.8 0.00 0.00 0.00 96 1010.6
20260905211406 11 189 3.2 4.8 0.00 0.00 0.00 96 1010.6
20260905210903 11 182 0.0 3.2 0.00 0.00 0.00 96 1010.5
20260905210402 11 259 6.4 6.4 0.00 0.00 0.00 96 1010.5
20260905205902 11 173 3.2 4.8 0.00 1.27 1.27 96 1010.5
20260905205357 11 190 3.2 3.2 0.00 1.27 1.27 96 1010.7
20260905204855 11 215 0.0 4.8 0.00 1.27 1.27 96 1010.7
20260905204352 11 164 1.6 3.2 0.00 1.27 1.27 96 1010.7
20260905203850 11 236 1.6 4.8 0.00 1.27 1.27 96 1010.6
20260905203346 11 180 0.0 1.6 0.00 1.27 1.27 95 1010.6
20260905202842 11 184 1.6 4.8 0.00 1.27 1.27 95 1010.8
20260905202337 11 175 1.6 3.2 0.00 1.27 1.27 95 1010.7
20260905201833 11 203 1.6 4.8 0.00 1.27 1.27 95 1010.6
20260905201328 11 209 1.6 3.2 0.00 1.27 1.27 95 1010.4
20260905200828 11 171 3.2 3.2 0.00 1.27 1.27 95 1010.5
20260905200325 11 193 0.0 1.6 0.00 1.27 1.27 95 1010.5
20260905195822 11 190 1.6 3.2 0.00 1.27 1.27 95 1010.6
20260905195317 11 297 1.6 11.3 0.00 1.27 1.27 95 1010.6
20260905194813 11 179 3.2 3.2 0.00 1.27 1.27 95 1010.8
20260905194313 11 198 3.2 4.8 0.00 1.27 1.27 95 1010.6
20260905193812 11 165 0.0 4.8 0.00 1.27 1.27 95 1010.6
20260905193307 11 213 1.6 4.8 0.00 1.27 1.27 95 1010.7
20260905192802 11 227 3.2 3.2 0.00 1.27 1.27 95 1010.5
20260905192258 11 184 0.0 6.4 0.00 1.27 1.27 95 1010.5
20260905191757 11 250 3.2 4.8 0.00 1.27 1.27 95 1010.5
20260905191256 11 203 3.2 4.8 0.00 1.27 1.27 95 1010.6
20260905190755 11 232 1.6 6.4 0.00 1.27 1.27 95 1010.5
20260905190254 11 169 3.2 4.8 0.00 1.27 1.27 95 1010.6
20260905185753 11 185 1.6 6.4 0.00 1.27 1.27 95 1010.5
20260905185248 11 209 1.6 3.2 0.00 1.27 1.27 95 1010.8
20260905184748 12 174 1.6 3.2 0.00 1.27 1.27 95 1010.6
20260905184247 12 204 1.6 6.4 0.00 1.27 1.27 95 1010.7
20260905183746 12 217 3.2 3.2 0.00 1.27 1.27 95 1010.7
20260905183242 12 179 0.0 1.6 0.00 1.27 1.27 95 1010.8
20260905182742 12 160 0.0 3.2 0.00 1.27 1.27 95 1010.8
20260905182241 12 184 1.6 3.2 0.00 1.27 1.27 95 1010.7
20260905181737 12 184 0.0 1.6 0.00 1.27 1.27 94 1010.6
20260905181236 12 175 0.0 0.0 0.00 1.27 1.27 94 1010.5
20260905180731 12 183 3.2 6.4 0.00 1.27 1.27 94 1010.6
20260905180226 12 166 0.0 3.2 0.00 1.27 1.27 94 1010.5
20260905175726 12 182 0.0 1.6 0.00 1.27 1.27 93 1010.5
20260905175221 12 176 1.6 6.4 0.00 1.27 1.27 93 1010.6
20260905174716 12 207 6.4 11.3 0.00 1.27 1.27 93 1010.6
20260905174212 12 236 3.2 4.8 0.00 1.27 1.27 94 1010.6
20260905173708 12 193 1.6 3.2 0.00 1.27 1.27 94 1010.3
20260905173203 12 189 3.2 3.2 0.00 1.27 1.27 94 1010.5
20260905172703 13 180 1.6 4.8 0.00 1.27 1.27 94 1010.5
20260905172157 13 190 3.2 6.4 0.00 1.27 1.27 93 1010.4
20260905171653 13 173 0.0 4.8 0.00 1.27 1.27 93 1010.5
20260905171149 13 174 1.6 6.4 0.00 1.27 1.27 92 1010.4
20260905170646 13 204 3.2 4.8 0.00 1.27 1.27 92 1010.3
20260905170141 13 192 1.6 1.6 0.00 1.27 1.27 91 1010.2
20260905165640 13 290 4.8 4.8 0.00 1.27 1.27 91 1010.2
20260905165136 13 197 3.2 9.7 0.00 1.27 1.27 90 1010.1
20260905164631 13 173 0.0 6.4 0.00 1.27 1.27 90 1010.0
20260905164130 13 223 8.0 9.7 0.00 1.27 1.27 90 1009.9
20260905163626 13 178 1.6 9.7 0.00 1.27 1.27 90 1010.1
20260905163122 13 230 3.2 9.7 0.00 1.27 1.27 90 1010.1
20260905162618 13 183 4.8 6.4 0.00 1.27 1.27 91 1010.0
20260905162117 14 178 0.0 4.8 0.00 1.27 1.27 91 1010.1
20260905161617 14 189 3.2 6.4 0.00 1.27 1.27 91 1009.9
20260905161115 14 184 3.2 4.8 0.00 1.27 1.27 90 1010.2
20260905160614 14 197 3.2 3.2 0.00 1.27 1.27 90 1010.2
20260905160109 14 139 3.2 4.8 0.00 1.27 1.27 90 1010.2
20260905155604 14 163 0.0 3.2 0.00 1.27 1.27 90 1009.9
20260905155102 15 206 1.6 3.2 0.00 1.27 1.27 90 1009.8
20260905154557 15 250 3.2 6.4 0.00 1.27 1.27 90 1009.8
20260905154052 15 226 4.8 6.4 0.00 1.27 1.27 90 1009.6
20260905153548 15 188 0.0 4.8 0.00 1.27 1.27 90 1009.9
20260905153048 15 207 3.2 4.8 0.18 1.27 1.27 89 1009.6
20260905152543 15 161 1.6 9.7 0.18 1.27 1.27 88 1009.8
20260905152038 15 146 8.0 16.1 0.00 1.24 1.24 87 1009.7
20260905151533 15 228 6.4 6.4 0.13 1.24 1.24 88 1009.3
20260905151028 15 173 0.0 3.2 0.13 1.24 1.24 88 1009.5
20260905150523 15 274 4.8 6.4 0.00 1.22 1.22 87 1009.4
20260905150021 15 168 1.6 11.3 0.00 1.22 1.22 85 1009.4
20260905145515 16 181 3.2 6.4 0.00 1.22 1.22 85 1009.3
20260905145014 16 173 0.0 4.8 0.00 1.22 1.22 84 1009.3
20260905144510 16 300 6.4 9.7 0.00 1.22 1.22 82 1009.2
20260905144009 17 226 1.6 4.8 0.00 1.22 1.22 81 1009.1
20260905143508 17 153 0.0 9.7 0.00 1.22 1.22 82 1009.0
20260905143003 16 162 1.6 9.7 0.00 1.22 1.22 84 1009.0
20260905142501 16 183 0.0 4.8 0.00 1.22 1.22 85 1009.1
20260905141957 16 236 3.2 14.5 0.00 1.22 1.22 83 1009.1
20260905141451 16 176 1.6 6.4 0.00 1.22 1.22 85 1008.8
20260905140948 15 191 1.6 11.3 0.00 1.22 1.22 88 1008.9
20260905140443 15 148 1.6 6.4 0.00 1.22 1.22 90 1008.9
20260905135941 14 194 0.0 3.2 0.00 1.22 1.22 92 1009.2
20260905135437 14 172 1.6 14.5 0.00 1.22 1.22 89 1009.1
20260905134932 15 76 3.2 4.8 0.00 1.22 1.22 89 1009.2
20260905134432 15 184 4.8 6.4 0.00 1.22 1.22 88 1008.9
20260905133926 15 162 1.6 6.4 0.00 1.22 1.22 91 1008.6
20260905133420 14 148 4.8 6.4 0.00 1.22 1.22 91 1008.7
20260905132920 14 210 6.4 9.7 0.00 1.22 1.22 92 1008.5
20260905132415 13 143 3.2 9.7 0.18 1.22 1.22 93 1008.4
20260905131910 13 119 0.0 11.3 0.30 1.22 1.22 92 1008.7
20260905131407 13 263 8.0 11.3 0.13 1.19 1.19 91 1008.7
20260905130906 13 194 1.6 14.5 0.00 1.17 1.17 91 1008.5
20260905130405 13 269 4.8 9.7 0.30 1.17 1.17 90 1008.8
20260905125900 13 222 6.4 14.5 0.61 1.17 1.17 90 1008.8
20260905125355 14 29 8.0 24.1 0.48 1.12 1.12 90 1008.9
20260905124851 15 18 6.4 9.7 0.00 1.04 1.04 90 1008.6
20260905124348 15 167 1.6 11.3 0.18 1.04 1.04 91 1008.3
20260905123847 15 163 1.6 12.9 0.18 1.04 1.04 89 1008.2
20260905123344 15 45 1.6 6.4 0.30 1.02 1.02 88 1008.4
20260905122843 15 151 3.2 6.4 0.43 1.02 1.02 84 1008.6
20260905122343 16 212 3.2 9.7 0.13 0.97 0.97 81 1008.4
20260905121838 16 291 6.4 14.5 0.00 0.94 0.94 78 1008.3
20260905121335 17 226 4.8 27.4 0.00 0.94 0.94 77 1008.0
20260905120833 17 235 6.4 16.1 0.00 0.94 0.94 77 1007.9
20260905120328 17 228 8.0 11.3 0.00 0.94 0.94 78 1007.8
20260905115824 17 248 6.4 12.9 0.00 0.94 0.94 78 1007.8
20260905115323 17 250 12.9 16.1 0.00 0.94 0.94 79 1007.9
20260905114823 17 256 12.9 20.9 0.00 0.94 0.94 78 1007.6
20260905114322 17 257 12.9 17.7 0.00 0.94 0.94 75 1007.5
20260905113821 18 204 6.4 16.1 0.00 0.94 0.94 74 1007.2
20260905113317 18 221 6.4 16.1 0.00 0.94 0.94 75 1007.3
20260905112813 17 245 4.8 12.9 0.00 0.94 0.94 76 1007.2
20260905112307 17 139 4.8 12.9 0.00 0.94 0.94 79 1007.1
20260905111802 16 131 4.8 14.5 0.00 0.94 0.94 82 1007.3
20260905111256 16 220 3.2 6.4 0.00 0.94 0.94 82 1007.5
20260905110756 16 221 8.0 14.5 0.00 0.94 0.94 82 1007.2
20260905110250 16 215 6.4 11.3 0.00 0.94 0.94 84 1007.2
20260905105746 15 270 9.7 20.9 0.00 0.94 0.94 86 1007.4
20260905105244 16 227 4.8 14.5 0.00 0.94 0.94 84 1007.4
20260905104739 17 112 14.5 17.7 0.00 0.94 0.94 78 1007.4
20260905104236 17 180 3.2 12.9 0.00 0.94 0.94 75 1007.1
20260905103736 16 219 8.0 12.9 0.00 0.94 0.94 76 1007.2
20260905103232 16 240 6.4 14.5 0.00 0.94 0.94 77 1007.2
20260905102727 16 136 3.2 12.9 0.00 0.94 0.94 75 1007.2
20260905102223 16 185 4.8 14.5 0.00 0.94 0.94 76 1007.2
20260905101722 16 213 8.0 9.7 0.00 0.94 0.94 77 1007.0
20260905101221 16 199 3.2 9.7 0.00 0.94 0.94 79 1006.9
20260905100717 16 190 3.2 12.9 0.00 0.94 0.94 79 1006.9
20260905100212 17 156 3.2 17.7 0.00 0.94 0.94 74 1007.1
20260905095711 17 220 8.0 16.1 0.00 0.94 0.94 73 1006.7
20260905095206 17 157 3.2 14.5 0.00 0.94 0.94 74 1006.8
20260905094707 17 187 4.8 11.3 0.00 0.94 0.94 75 1007.0
20260905094206 16 156 4.8 14.5 0.00 0.94 0.94 75 1006.7
20260905093701 17 159 3.2 14.5 0.00 0.94 0.94 75 1006.6
20260905093157 17 165 3.2 6.4 0.00 0.94 0.94 74 1006.6
20260905092652 17 182 3.2 11.3 0.00 0.94 0.94 73 1006.6
20260905092148 17 235 9.7 17.7 0.00 0.94 0.94 72 1006.3
20260905091647 17 226 19.3 29.0 0.00 0.94 0.94 73 1006.3
20260905091147 17 241 8.0 16.1 0.00 0.94 0.94 74 1006.3
20260905090642 17 202 6.4 25.7 0.00 0.94 0.94 74 1006.2
20260905090138 16 171 3.2 25.7 0.00 0.94 0.94 76 1006.3
20260905085636 16 168 3.2 14.5 0.00 0.94 0.94 77 1006.2
20260905085131 16 216 3.2 14.5 0.00 0.94 0.94 78 1006.2
20260905084631 16 234 4.8 9.7 0.00 0.94 0.94 79 1006.2
20260905084126 16 194 3.2 12.9 0.00 0.94 0.94 80 1006.2
20260905083621 16 234 8.0 12.9 0.00 0.94 0.94 79 1006.2
20260905083117 16 237 8.0 12.9 0.00 0.94 0.94 80 1006.2
20260905082618 16 237 9.7 24.1 0.00 0.94 0.94 77 1006.2
20260905082113 16 243 8.0 11.3 0.00 0.94 0.94 79 1006.1
20260905081608 16 241 9.7 22.5 0.00 0.94 0.94 77 1005.9
20260905081103 17 150 4.8 17.7 0.00 0.94 0.94 76 1005.9
20260905080602 16 245 9.7 14.5 0.00 0.94 0.94 78 1005.6
20260905080057 17 211 1.6 9.7 0.00 0.94 0.94 78 1005.8
20260905075556 16 181 3.2 22.5 0.00 0.94 0.94 79 1005.7
20260905075056 16 193 6.4 12.9 0.00 0.94 0.94 80 1005.5
20260905074555 15 189 8.0 16.1 0.00 0.94 0.94 81 1005.5
20260905074051 15 176 4.8 16.1 0.00 0.94 0.94 81 1005.4
20260905073547 15 170 1.6 9.7 0.00 0.94 0.94 82 1005.4
20260905073042 15 232 8.0 12.9 0.00 0.94 0.94 80 1005.2
20260905072542 16 211 3.2 12.9 0.00 0.94 0.94 81 1005.1
20260905072037 16 235 6.4 25.7 0.00 0.94 0.94 80 1005.1
20260905071534 16 213 4.8 12.9 0.00 0.94 0.94 83 1004.9
20260905071034 15 20 6.4 12.9 0.00 0.94 0.94 85 1004.9
20260905070529 15 334 4.8 14.5 0.00 0.94 0.94 87 1005.0
20260905070025 15 209 1.6 16.1 0.00 0.94 0.94 87 1004.8
20260905065522 15 165 3.2 25.7 0.00 0.94 0.94 87 1004.8
20260905065018 15 183 4.8 11.3 0.00 0.94 0.94 88 1004.6
20260905064513 15 247 12.9 16.1 0.00 0.94 0.94 88 1004.4
20260905064009 15 153 1.6 9.7 0.00 0.94 0.94 90 1004.6
20260905063508 15 106 3.2 16.1 0.00 0.94 0.94 90 1004.2
20260905063004 15 249 8.0 16.1 0.00 0.94 0.94 90 1004.2
20260905062504 15 255 11.3 16.1 0.00 0.94 0.94 91 1004.0
20260905061959 15 174 6.4 9.7 0.00 0.94 0.94 93 1004.1
20260905061453 15 230 4.8 6.4 0.00 0.94 0.94 93 1003.8
20260905060952 15 138 0.0 4.8 0.00 0.94 0.94 94 1003.7
20260905060449 15 142 4.8 12.9 0.00 0.94 0.94 94 1003.7
20260905055949 15 171 1.6 11.3 0.00 0.94 0.94 94 1003.6
20260905055448 15 188 6.4 11.3 0.00 0.94 0.94 94 1003.4
20260905054949 15 131 1.6 9.7 0.00 0.94 0.94 94 1003.3
20260905054444 15 214 6.4 12.9 0.00 0.94 0.94 94 1003.2
20260905053944 15 227 1.6 12.9 0.00 0.94 0.94 94 1003.0
20260905053439 15 164 3.2 6.4 0.00 0.94 0.94 94 1003.0
20260905052935 15 170 8.0 9.7 0.00 0.94 0.94 94 1002.9
20260905052434 15 233 4.8 14.5 0.00 0.94 0.94 95 1002.9
20260905051934 15 181 3.2 9.7 0.00 0.94 0.94 95 1002.7
20260905051430 15 245 8.0 16.1 0.00 0.94 0.94 95 1002.7
20260905050927 15 256 6.4 17.7 0.00 0.94 0.94 95 1002.7
20260905050423 15 200 1.6 14.5 0.00 0.94 0.94 96 1002.5
20260905045918 15 167 1.6 6.4 0.00 0.94 0.94 96 1002.2
20260905045414 15 196 4.8 9.7 0.00 0.94 0.94 96 1002.2
20260905044909 15 176 1.6 14.5 0.00 0.94 0.94 96 1002.2
20260905044404 15 186 3.2 9.7 0.00 0.94 0.94 97 1002.2
20260905043902 15 161 6.4 11.3 0.00 0.94 0.94 97 1002.1
20260905043357 15 235 4.8 6.4 0.00 0.94 0.94 97 1002.1
20260905042857 15 216 6.4 9.7 0.00 0.94 0.94 97 1001.9
20260905042352 15 198 3.2 20.9 0.00 0.94 0.94 97 1002.0
20260905041847 15 204 4.8 9.7 0.00 0.94 0.94 97 1002.1
20260905041343 14 190 1.6 4.8 0.18 0.94 0.94 97 1002.1
20260905040837 14 172 0.0 1.6 0.18 0.94 0.94 97 1001.7
20260905040336 14 183 1.6 3.2 0.61 0.91 0.91 97 1001.7
20260905035836 14 195 3.2 4.8 0.89 0.89 0.89 97 1001.8
20260905035331 14 167 0.0 4.8 1.37 0.81 0.81 96 1001.9
20260905034828 15 175 0.0 11.3 3.35 0.74 0.74 96 1001.8
20260905034323 15 192 0.0 3.2 2.29 0.53 0.53 95 1002.0
20260905033822 15 192 1.6 3.2 0.00 0.15 0.15 95 1001.8
20260905033317 15 179 0.0 1.6 0.00 0.15 0.15 94 1001.6
20260905032817 15 197 0.0 1.6 0.13 0.15 0.15 94 1001.6
20260905032312 15 169 1.6 1.6 0.13 0.15 0.15 92 1001.5
20260905031807 15 209 3.2 3.2 0.00 0.13 0.13 91 1001.8
20260905031303 15 198 1.6 4.8 0.00 0.13 0.13 91 1001.6
20260905030758 15 212 1.6 9.7 0.00 0.13 0.13 91 1002.0
20260905030253 15 208 6.4 6.4 0.00 0.13 0.13 91 1002.0
20260905025748 15 177 0.0 3.2 0.00 0.13 0.13 91 1001.9
20260905025243 15 201 1.6 3.2 0.00 0.13 0.13 91 1002.0
20260905024739 15 178 0.0 1.6 0.00 0.13 0.13 91 1001.8
20260905024235 15 218 4.8 9.7 0.00 0.13 0.13 91 1002.1
20260905023734 15 161 1.6 6.4 0.00 0.13 0.13 92 1002.0